Chicago Executive, IL

9:09 PM CST on December 09, 2019 (GMT -0600)
Chicago Executive

Weather History for KPWK - October, 2019

Change the Weather History Date:

Thursday, October 31, 2019

  Actual Average Record
Temperature  
Mean Temperature 30 °F 47 °F  
Max Temperature 34 °F 56 °F 70 °F (2000)
Min Temperature 26 °F 38 °F 26 °F (1996)
Degree Days  
Heating Degree Days 35 18  
Month to date heating degree days 419 408  
Since 1 July heating degree days 426 521  
Cooling Degree Days 0 0  
Month to date cooling degree days 13 11  
Year to date cooling degree days 996 789  
Moisture  
Dew Point 29 °F    
Average Humidity 85    
Maximum Humidity 89    
Minimum Humidity 69    
Precipitation  
Precipitation 0.17 in 0.07 in 0.90 in (2013)
Month to date precipitation 5.19 2.94  
Year to date precipitation 41.88 28.63  
Sea Level Pressure  
Sea Level Pressure 29.88 in    
Wind  
Wind Speed 13 mph ()    
Max Wind Speed 25 mph    
Max Gust Speed 35 mph    
Visibility 3.2 miles    
Events Fog , Rain , Snow    
T = Trace of Precipitation, MM = Missing Value Source: Averaged Metar Reports

Daily Weather History Graph

Daily Weather History Graph

Search for Another Location

Airport or City:

Astronomy

Oct. 31, 2019 Rise Set
Actual Time 7:22 AM CDT 5:46 PM CDT
Civil Twilight 6:53 AM CDT 6:15 PM CDT
Nautical Twilight 6:20 AM CDT 6:48 PM CDT
Astronomical Twilight 5:48 AM CDT 7:21 PM CDT
Moon 11:14 AM CDT (10/31) 8:39 PM CDT (10/31)
Length of Visible Light 11h 21m
Length of Day
10h 23m
Waxing Crescent, 16% of the Moon is Illuminated
Oct 31
Waxing Crescent
Nov 4
First Quarter
Nov 12
Full
Nov 19
Last Quarter
Nov 26
New

Hourly Weather History & Observations

Time (CDT) Temp. Windchill Dew Point Humidity Pressure Visibility Wind Dir Wind Speed Gust Speed Precip Events Conditions
12:52 AM 34.0 °F 26.6 °F 30.9 °F 89% 29.96 in 4.0 mi North 9.2 mph 21.9 mph 0.05 in Rain Rain
1:52 AM 34.0 °F 24.6 °F 30.9 °F 89% 29.93 in 8.0 mi NNW 13.8 mph 23.0 mph 0.08 in Rain Light Rain
2:52 AM 34.0 °F 24.2 °F 30.9 °F 89% 29.91 in 5.0 mi North 15.0 mph 24.2 mph 0.01 in   Overcast
3:52 AM 34.0 °F 24.2 °F 30.0 °F 85% 29.89 in 4.0 mi North 15.0 mph 25.3 mph 0.01 in Snow Light Snow
4:13 AM 34.0 °F 25.5 °F 30.0 °F 85% 29.90 in 6.0 mi NNW 11.5 mph 21.9 mph 0.00 in   Overcast
4:40 AM 34.0 °F 25.5 °F 30.0 °F 85% 29.87 in 1.8 mi NNW 11.5 mph 21.9 mph 0.00 in Snow Light Snow
4:50 AM 33.8 °F 24.8 °F 30.2 °F 87% 29.88 in 1.5 mi NNW 12.7 mph 19.6 mph 0.00 in Snow Light Snow
4:52 AM 34.0 °F 25.0 °F 30.0 °F 85% 29.89 in 1.8 mi NNW 12.7 mph - 0.00 in Snow Light Snow
5:10 AM 34.0 °F 24.2 °F 30.0 °F 85% 29.86 in 2.5 mi North 15.0 mph 21.9 mph 0.00 in Snow Light Snow
5:19 AM 34.0 °F 25.0 °F 30.0 °F 85% 29.87 in 3.0 mi NNW 12.7 mph 26.5 mph 0.00 in Snow Light Snow
5:26 AM 34.0 °F 26.0 °F 30.0 °F 85% 29.86 in 2.5 mi NNW 10.4 mph 23.0 mph 0.00 in Snow Light Snow
5:36 AM 34.0 °F 24.2 °F 30.0 °F 85% 29.86 in 4.0 mi NNW 15.0 mph 23.0 mph 0.00 in Snow Light Snow
5:52 AM 34.0 °F 23.8 °F 30.0 °F 85% 29.86 in 6.0 mi North 16.1 mph 27.6 mph 0.00 in   Overcast
6:52 AM 33.1 °F 23.4 °F 30.0 °F 89% 29.83 in 4.0 mi NNW 13.8 mph 21.9 mph 0.00 in Snow Light Snow
7:38 AM 33.1 °F 23.0 °F 28.9 °F 85% 29.80 in 2.5 mi NNW 15.0 mph 24.2 mph 0.00 in Snow Light Snow
7:52 AM 33.1 °F 23.0 °F 30.0 °F 89% 29.81 in 1.8 mi NNW 15.0 mph - 0.00 in Snow Light Snow
8:03 AM 33.1 °F 23.4 °F 30.0 °F 89% 29.79 in 2.5 mi NNW 13.8 mph 21.9 mph 0.00 in Snow Light Snow
8:14 AM 33.1 °F 24.4 °F 30.0 °F 89% 29.80 in 1.8 mi NNW 11.5 mph 23.0 mph 0.00 in Snow Light Snow
8:36 AM 33.1 °F 23.0 °F 30.0 °F 89% 29.79 in 1.2 mi NNW 15.0 mph 24.2 mph 0.00 in Snow Light Snow
8:41 AM 33.1 °F 23.4 °F 30.0 °F 89% 29.78 in 1.2 mi NNW 13.8 mph 24.2 mph 0.00 in Snow Light Snow
8:45 AM 33.1 °F 23.0 °F 30.0 °F 89% 29.79 in 1.2 mi NNW 15.0 mph 24.2 mph 0.00 in Snow Light Snow
8:52 AM 33.1 °F 23.0 °F 30.0 °F 89% 29.80 in 1.0 mi NNW 15.0 mph 26.5 mph 0.00 in Snow Light Snow
9:32 AM 33.1 °F 24.4 °F 30.0 °F 89% 29.77 in 1.2 mi NNW 11.5 mph 25.3 mph 0.00 in Snow Light Snow
9:52 AM 33.1 °F 23.4 °F 30.0 °F 89% 29.80 in 1.5 mi NNW 13.8 mph 24.2 mph 0.00 in Snow Light Snow
10:21 AM 33.1 °F 22.6 °F 28.9 °F 85% 29.78 in 1.0 mi NNW 16.1 mph 24.2 mph 0.01 in Snow Light Snow
10:33 AM 33.1 °F 22.6 °F 28.9 °F 85% 29.78 in 0.8 mi NNW 16.1 mph 26.5 mph 0.01 in Snow Light Snow
10:50 AM 33.8 °F 24.8 °F 30.2 °F 87% 29.78 in 1.0 mi NNW 12.7 mph - 0.01 in Snow Light Snow
10:52 AM 33.1 °F 23.4 °F 30.0 °F 89% 29.81 in 1.0 mi NW 13.8 mph - 0.01 in Snow Light Snow
10:59 AM 33.1 °F 22.2 °F 30.0 °F 89% 29.78 in 1.2 mi NNW 17.3 mph 26.5 mph 0.00 in Snow Light Snow
11:06 AM 33.1 °F 23.4 °F 30.0 °F 89% 29.78 in 1.0 mi NNW 13.8 mph 25.3 mph 0.00 in Snow Light Snow
11:15 AM 34.0 °F 24.2 °F 30.0 °F 85% 29.79 in 1.0 mi NNW 15.0 mph 26.5 mph 0.00 in Snow Light Snow
11:28 AM 34.0 °F 23.4 °F 30.0 °F 85% 29.78 in 0.8 mi NW 17.3 mph 28.8 mph 0.00 in Snow Light Snow
11:40 AM 33.1 °F 22.2 °F 30.0 °F 89% 29.78 in 0.8 mi NNW 17.3 mph 27.6 mph 0.00 in Snow Light Snow
11:52 AM 33.1 °F 21.9 °F 30.0 °F 89% 29.81 in 0.8 mi NW 18.4 mph 27.6 mph 0.00 in Snow Light Snow
12:52 PM 32.0 °F 21.2 °F 28.9 °F 88% 29.81 in 0.5 mi NNW 16.1 mph 26.5 mph 0.01 in Fog , Snow Snow
2:52 PM 32.0 °F 20.5 °F 28.9 °F 88% 29.88 in 0.5 mi NW 18.4 mph 27.6 mph 0.00 in Fog , Snow Snow
3:13 PM 33.1 °F 21.9 °F 28.9 °F 85% 29.87 in 1.0 mi NW 18.4 mph 26.5 mph 0.00 in Snow Light Snow
3:21 PM 33.1 °F 21.2 °F 28.9 °F 85% 29.87 in 1.2 mi NW 20.7 mph 29.9 mph 0.00 in Snow Light Snow
3:34 PM 33.1 °F 21.5 °F 28.9 °F 85% 29.88 in 2.0 mi NW 19.6 mph 31.1 mph 0.00 in Snow Light Snow
3:52 PM 33.1 °F 21.9 °F 28.0 °F 82% 29.92 in 2.5 mi NW 18.4 mph 29.9 mph 0.00 in Snow Light Snow
4:32 PM 33.1 °F 22.2 °F 28.0 °F 82% 29.93 in 1.5 mi NW 17.3 mph 25.3 mph 0.00 in Snow Light Snow
4:45 PM 33.1 °F 22.6 °F 28.0 °F 82% 29.94 in 2.5 mi NW 16.1 mph 26.5 mph 0.00 in Snow Light Snow
4:52 PM 33.1 °F 22.6 °F 28.0 °F 82% 29.96 in 2.5 mi NW 16.1 mph 25.3 mph 0.00 in Snow Light Snow
5:03 PM 33.1 °F 23.9 °F 28.0 °F 82% 29.95 in 2.5 mi WNW 12.7 mph 27.6 mph 0.00 in Snow Light Snow
5:23 PM 33.1 °F 24.4 °F 28.0 °F 82% 29.96 in 2.5 mi WNW 11.5 mph 21.9 mph 0.00 in Snow Light Snow
5:52 PM 33.1 °F 23.4 °F 27.0 °F 78% 30.00 in 9.0 mi WNW 13.8 mph 25.3 mph 0.00 in   Overcast
6:52 PM 32.0 °F 23.0 °F 25.0 °F 75% 30.05 in 10.0 mi West 11.5 mph - N/A   Partly Cloudy
7:52 PM 32.0 °F 25.6 °F 23.0 °F 69% 30.09 in 10.0 mi West 6.9 mph - N/A   Clear
8:52 PM 30.0 °F 23.2 °F 21.9 °F 72% 30.11 in 10.0 mi West 6.9 mph - N/A   Clear
9:52 PM 30.0 °F 21.7 °F 21.0 °F 69% 30.14 in 10.0 mi West 9.2 mph - N/A   Clear
10:52 PM 28.9 °F 21.1 °F 19.9 °F 69% 30.15 in 10.0 mi West 8.1 mph - N/A   Partly Cloudy
11:52 PM 27.0 °F 20.5 °F 19.9 °F 75% 30.17 in 10.0 mi WSW 5.8 mph - N/A   Clear